Location: Montreal
(45.5000°N, 73.5833°W)
Time: 21:39:10
(UTC-05:00)

N. Korean satellite - Pass Details

Date: 13 October 2017
Orbit: 461 x 513 km, 97.2° (Epoch: 16 December)

Event Time Altitude Azimuth Distance (km) Brightness Sun altitude
Rises 19:49:46 0° 203° (SSW) 2,547 10.4 -17.9°
Reaches altitude 10° 19:52:22 10° 223° (SW) 1,662 9.7 -18.4°
Maximum altitude 19:54:49 18° 267° (W) 1,260 9.6 -18.8°
Drops below altitude 10° 19:57:16 10° 311° (NW) 1,652 10.1 -19.2°
Sets 19:59:51 0° 332° (NNW) 2,526 10.7 -19.7°
